TimeCST,TemperatureF,Dew PointF,Humidity,Sea Level PressureIn,VisibilityMPH,Wind Direction,Wind SpeedMPH,Gust SpeedMPH,PrecipitationIn,Events,Conditions,WindDirDegrees,DateUTC
12:15 AM,39.2,24.8,56,30.33,10.0,NNW,3.5,-,N/A,,Unknown,340,2012-12-05 06:15:00
12:35 AM,37.4,24.8,60,30.34,10.0,NW,3.5,-,N/A,,Unknown,320,2012-12-05 06:35:00
12:55 AM,37.4,24.8,60,30.34,10.0,North,3.5,-,N/A,,Unknown,360,2012-12-05 06:55:00
1:15 AM,39.2,23.0,52,30.34,10.0,NE,3.5,-,N/A,,Unknown,40,2012-12-05 07:15:00
1:55 AM,37.4,24.8,60,30.34,10.0,Calm,Calm,-,N/A,,Unknown,0,2012-12-05 07:55:00
2:15 AM,37.4,24.8,60,30.33,10.0,Calm,Calm,-,N/A,,Unknown,0,2012-12-05 08:15:00
2:35 AM,35.6,24.8,65,30.33,10.0,Calm,Calm,-,N/A,,Unknown,0,2012-12-05 08:35:00
2:55 AM,33.8,24.8,70,30.34,10.0,WNW,4.6,-,N/A,,Unknown,300,2012-12-05 08:55:00
3:15 AM,35.6,24.8,65,30.33,10.0,NW,3.5,-,N/A,,Unknown,310,2012-12-05 09:15:00
3:35 AM,35.6,24.8,65,30.32,10.0,Calm,Calm,-,N/A,,Unknown,0,2012-12-05 09:35:00
3:55 AM,35.6,24.8,65,30.32,10.0,Calm,Calm,-,N/A,,Unknown,0,2012-12-05 09:55:00
4:15 AM,35.6,24.8,65,30.32,10.0,Calm,Calm,-,N/A,,Unknown,0,2012-12-05 10:15:00
4:35 AM,35.6,24.8,65,30.31,10.0,Calm,Calm,-,N/A,,Unknown,0,2012-12-05 10:35:00
4:55 AM,35.6,24.8,65,30.31,10.0,Calm,Calm,-,N/A,,Unknown,0,2012-12-05 10:55:00
5:15 AM,32.0,26.6,80,30.31,10.0,Calm,Calm,-,N/A,,Unknown,0,2012-12-05 11:15:00
5:35 AM,35.6,24.8,65,30.30,10.0,Calm,Calm,-,N/A,,Unknown,0,2012-12-05 11:35:00
5:55 AM,33.8,24.8,70,30.30,10.0,Calm,Calm,-,N/A,Thunderstorm,Unknown,0,2012-12-05 11:55:00
6:15 AM,33.8,24.8,70,30.30,10.0,Calm,Calm,-,N/A,,Unknown,0,2012-12-05 12:15:00
6:35 AM,32.0,24.8,75,30.31,10.0,WNW,3.5,-,N/A,,Unknown,290,2012-12-05 12:35:00
6:55 AM,32.0,24.8,75,30.32,7.0,West,5.8,-,N/A,,Unknown,280,2012-12-05 12:55:00
8:55 AM,41.0,32.0,70,30.32,10.0,Calm,Calm,-,N/A,,Clear,0,2012-12-05 14:55:00
9:15 AM,42.8,32.0,66,30.32,9.0,Calm,Calm,-,N/A,,Clear,0,2012-12-05 15:15:00
9:35 AM,46.4,32.0,57,30.32,7.0,SE,5.8,-,N/A,,Clear,140,2012-12-05 15:35:00
9:55 AM,50.0,32.0,50,30.31,8.0,SE,10.4,-,N/A,,Clear,140,2012-12-05 15:55:00
10:15 AM,53.6,32.0,44,30.30,10.0,SE,8.1,-,N/A,,Clear,140,2012-12-05 16:15:00
10:35 AM,55.4,26.6,33,30.29,10.0,SE,10.4,-,N/A,,Clear,140,2012-12-05 16:35:00
10:55 AM,57.2,26.6,31,30.28,10.0,SSE,11.5,-,N/A,,Clear,150,2012-12-05 16:55:00
11:15 AM,57.2,23.0,27,30.27,5.0,SSE,13.8,17.3,N/A,,Haze,160,2012-12-05 17:15:00
11:35 AM,57.2,26.6,31,30.26,9.0,SSE,11.5,-,N/A,,Clear,150,2012-12-05 17:35:00
11:55 AM,57.2,26.6,31,30.25,10.0,SSE,10.4,-,N/A,,Clear,160,2012-12-05 17:55:00
12:15 PM,59.0,24.8,27,30.23,10.0,South,9.2,-,N/A,,Clear,180,2012-12-05 18:15:00
12:35 PM,59.0,23.0,25,30.22,10.0,South,11.5,-,N/A,,Clear,180,2012-12-05 18:35:00
12:55 PM,59.0,23.0,25,30.21,10.0,South,6.9,-,N/A,,Clear,190,2012-12-05 18:55:00
1:15 PM,59.0,24.8,27,30.20,10.0,South,10.4,-,N/A,,Clear,190,2012-12-05 19:15:00
1:35 PM,59.0,24.8,27,30.18,10.0,South,6.9,-,N/A,,Clear,190,2012-12-05 19:35:00
1:55 PM,60.8,24.8,25,30.17,10.0,South,8.1,-,N/A,,Clear,170,2012-12-05 19:55:00
2:15 PM,60.8,24.8,25,30.15,10.0,SE,10.4,-,N/A,,Clear,130,2012-12-05 20:15:00
2:35 PM,60.8,24.8,25,30.14,10.0,SE,10.4,-,N/A,,Clear,140,2012-12-05 20:35:00
2:55 PM,62.6,24.8,24,30.13,10.0,SE,11.5,-,N/A,,Clear,140,2012-12-05 20:55:00
3:15 PM,60.8,24.8,25,30.12,10.0,SSE,9.2,-,N/A,,Clear,160,2012-12-05 21:15:00
3:35 PM,59.0,24.8,27,30.11,7.0,SSE,10.4,-,N/A,,Clear,150,2012-12-05 21:35:00
3:55 PM,59.0,24.8,27,30.10,10.0,SSE,9.2,-,N/A,,Clear,150,2012-12-05 21:55:00
4:15 PM,57.2,26.6,31,30.10,3.0,SE,10.4,-,N/A,,Haze,140,2012-12-05 22:15:00
4:35 PM,57.2,26.6,31,30.10,10.0,SE,8.1,-,N/A,,Clear,140,2012-12-05 22:35:00
4:55 PM,57.2,26.6,31,30.09,10.0,SE,8.1,-,N/A,,Clear,140,2012-12-05 22:55:00
5:15 PM,53.6,26.6,35,30.09,10.0,SSE,6.9,-,N/A,,Clear,150,2012-12-05 23:15:00
5:35 PM,50.0,26.6,40,30.09,10.0,SSE,8.1,-,N/A,,Unknown,160,2012-12-05 23:35:00
5:55 PM,50.0,26.6,40,30.09,10.0,SSE,6.9,-,N/A,,Unknown,160,2012-12-05 23:55:00
6:15 PM,48.2,26.6,43,30.08,10.0,SSE,8.1,-,N/A,,Unknown,160,2012-12-06 00:15:00
6:35 PM,48.2,26.6,43,30.07,10.0,SSE,9.2,-,N/A,,Unknown,150,2012-12-06 00:35:00
6:55 PM,48.2,28.4,46,30.07,10.0,SSE,10.4,-,N/A,,Unknown,150,2012-12-06 00:55:00
7:15 PM,48.2,28.4,46,30.06,10.0,SSE,10.4,-,N/A,,Unknown,150,2012-12-06 01:15:00
7:35 PM,48.2,28.4,46,30.06,10.0,SSE,10.4,-,N/A,,Unknown,150,2012-12-06 01:35:00
7:55 PM,50.0,30.2,47,30.05,10.0,SSE,13.8,-,N/A,,Unknown,150,2012-12-06 01:55:00
8:15 PM,50.0,32.0,50,30.06,10.0,SSE,12.7,-,N/A,,Unknown,160,2012-12-06 02:15:00
8:35 PM,50.0,32.0,50,30.05,10.0,SSE,15.0,-,N/A,,Unknown,150,2012-12-06 02:35:00
8:55 PM,50.0,33.8,54,30.04,10.0,SSE,15.0,-,N/A,,Unknown,160,2012-12-06 02:55:00
9:15 PM,50.0,35.6,58,30.04,10.0,SSE,13.8,18.4,N/A,,Unknown,160,2012-12-06 03:15:00
9:55 PM,48.2,35.6,62,30.03,10.0,South,12.7,-,N/A,,Unknown,170,2012-12-06 03:55:00
10:15 PM,48.2,37.4,66,30.03,10.0,South,12.7,-,N/A,,Unknown,170,2012-12-06 04:15:00
10:35 PM,48.2,37.4,66,30.03,10.0,South,11.5,-,N/A,,Unknown,170,2012-12-06 04:35:00
10:55 PM,46.4,37.4,71,30.03,10.0,SSE,9.2,-,N/A,,Unknown,160,2012-12-06 04:55:00
11:15 PM,46.4,39.2,76,30.02,10.0,South,10.4,-,N/A,,Unknown,170,2012-12-06 05:15:00
11:35 PM,46.4,39.2,76,30.01,10.0,SSE,12.7,-,N/A,,Unknown,160,2012-12-06 05:35:00
11:55 PM,46.4,39.2,76,30.00,10.0,SSE,13.8,-,N/A,,Unknown,160,2012-12-06 05:55:00